Location: Waco, TX
(31.5480°N, 97.1670°W)
Time: 00:28:46
(UTC-06:00)

ISS - Pass Details

Date: 10 December 2017
Orbit: 403 x 407 km, 51.6° (Epoch: 12 December)

Event Time Altitude Azimuth Distance (km) Brightness Sun altitude
Rises 11:42:21 0° 182° (S) 2,308 1.0 34.7°
Reaches altitude 10° 11:45:32 10° 148° (SSE) 1,454 0.1 34.8°
Maximum altitude 11:46:46 12° 125° (SE) 1,358 -0.4 34.8°
Drops below altitude 10° 11:48:00 10° 103° (ESE) 1,458 -0.6 34.9°
Sets 11:51:11 0° 69° (ENE) 2,323 -0.1 35.0°
